Theta_e
322 318 321 323 312 312 304 305 311 309 313 318 319 317 314 315 311 308 327 325 328 329 339 339 341 342 341 341 340 339 339 338 338 336 335 333 332 330 329 328 327 327 327 326 326 325 324 323 322
316 315 321 319 309 302 302 306 307 313 317 318 318 317 315 311 319 321 321 325 327 328 332 336 338 339 339 338 337 336 336 336 335 334 333 331 329 328 326 326 325 324 325 325 325 324 322 321 321
313 313 315 312 308 302 301 303 309 314 315 313 313 317 314 311 319 318 323 324 324 323 327 329 332 334 334 334 333 333 333 332 332 331 330 327 325 324 322 321 321 321 322 322 322 322 321 320 320
314 315 311 306 299 297 300 302 303 309 312 316 315 310 317 321 318 320 323 323 320 320 321 323 326 326 326 326 326 326 326 326 324 324 323 322 320 320 318 317 317 318 319 320 320 320 320 319 319
313 312 304 300 296 297 300 300 304 306 306 311 313 308 312 319 321 322 321 322 319 318 317 317 320 321 321 321 320 319 319 318 317 317 317 317 317 316 316 315 315 317 317 318 318 318 318 318 317
309 310 302 298 296 297 298 299 304 305 306 307 311 310 312 319 319 319 320 320 319 318 317 317 316 317 317 317 317 316 316 315 315 315 314 313 313 313 313 313 314 315 316 317 317 316 316 315 315
305 305 297 297 295 296 296 299 301 303 304 307 312 307 313 318 320 320 320 319 318 319 318 317 317 316 316 314 314 314 314 314 314 313 313 312 311 312 311 311 312 314 314 314 314 313 314 313 312
303 302 294 294 294 292 296 297 300 304 305 313 314 307 307 318 320 320 316 314 315 312 312 311 312 311 314 315 311 310 311 311 311 310 309 309 308 308 308 308 309 311 311 311 312 312 312 312 310
302 298 293 292 293 293 295 297 302 309 307 309 310 312 315 318 313 311 310 310 310 310 309 309 309 310 311 311 310 312 310 309 309 309 308 310 309 308 308 306 307 308 308 309 309 310 309 308 305
300 296 292 293 294 294 294 295 295 298 302 305 307 312 310 308 308 308 308 307 307 306 306 306 307 308 309 309 311 312 311 311 310 310 310 310 309 308 306 307 305 306 305 306 307 307 306 304 305
296 293 294 293 296 294 294 294 295 298 296 301 303 307 306 307 307 306 305 304 303 303 304 303 304 306 307 309 310 310 311 311 311 310 309 309 309 309 309 309 309 309 306 307 307 307 306 305 305
293 294 294 294 294 294 293 294 294 295 299 299 306 308 305 305 303 302 302 301 300 300 300 300 301 302 303 305 306 307 307 308 308 306 304 306 306 307 307 307 307 308 307 307 307 307 307 306 306
294 293 294 294 294 293 293 291 293 295 299 306 304 304 303 301 300 299 298 298 298 297 297 297 297 298 299 300 301 301 300 302 301 299 299 299 301 300 300 300 302 304 305 305 305 306 306 306 306
295 295 293 293 293 293 292 292 290 293 300 303 301 300 298 297 296 296 295 294 294 294 294 294 293 294 295 296 297 297 297 297 298 297 296 296 297 295 295 296 296 297 298 298 299 301 304 305 305
295 293 294 293 292 292 293 290 290 293 296 301 297 296 296 295 294 292 292 291 292 291 291 291 291 292 292 293 294 295 295 295 296 294 294 294 293 292 292 293 294 295 294 296 296 297 298 299 302
294 295 292 293 292 291 293 292 292 295 298 300 298 296 295 292 291 290 290 289 290 290 290 290 290 290 291 291 292 292 292 294 293 293 292 292 291 291 291 291 291 292 292 293 294 294 294 295 295
295 293 291 292 290 289 290 292 292 294 299 299 299 297 294 290 289 289 288 288 288 288 288 288 290 289 289 290 291 291 291 292 291 292 291 291 290 290 289 290 290 290 290 291 291 291 292 292 293
288 288 288 288 289 288 288 288 292 291 296 298 298 296 294 291 289 288 288 288 288 287 287 288 288 288 289 290 290 291 290 290 290 290 289 290 289 289 289 289 289 289 288 289 289 289 290 290 291
289 287 286 287 286 285 287 286 289 291 291 295 296 295 293 290 289 288 287 287 287 286 286 286 287 287 288 287 287 287 286 287 287 288 288 289 289 288 288 288 287 288 287 287 287 287 287 287 289
286 284 286 287 285 285 286 285 290 290 289 292 294 294 293 290 288 287 287 287 285 285 285 286 286 286 286 286 286 286 286 287 287 287 287 288 287 287 287 287 286 286 286 286 286 286 285 286 287
285 283 283 282 285 284 284 290 288 285 286 288 291 294 293 290 288 287 286 286 286 285 285 285 286 286 286 286 286 286 286 286 285 285 285 286 286 286 286 285 285 285 285 284 285 285 284 282 284
282 284 283 282 283 284 284 285 290 285 285 285 287 289 290 290 288 288 286 286 286 285 285 285 286 286 285 286 285 284 283 282 284 284 285 285 286 285 285 285 284 284 284 284 284 285 284 283 281
284 284 283 282 282 281 281 282 290 284 286 286 287 288 289 290 289 287 287 286 286 285 285 286 285 286 285 285 284 284 283 283 284 284 284 284 285 285 284 284 284 283 283 284 283 283 283 283 282
285 282 282 282 283 285 273 279 288 289 287 287 287 287 288 288 288 287 287 286 285 286 286 286 285 284 285 284 284 283 282 282 282 282 282 283 283 284 284 284 283 283 283 282 282 283 282 282 282
285 287 287 285 286 285 271 277 286 288 286 287 287 287 287 288 288 287 285 284 285 285 285 286 284 283 283 283 283 282 282 282 281 281 281 281 281 282 282 282 282 282 282 282 282 282 281 282 281
281 283 285 277 279 280 270 279 288 287 285 285 284 285 285 286 287 286 285 285 284 284 285 285 283 281 282 281 281 281 281 281 281 281 281 280 281 281 282 281 281 281 281 280 281 281 281 281 282
281 285 280 277 266 274 281 283 288 285 284 284 284 284 285 286 286 285 285 284 284 284 285 282 281 281 280 281 280 280 280 280 280 280 280 280 281 280 280 281 280 280 280 279 279 279 279 280 280
282 282 283 282 279 277 280 278 283 288 288 284 284 285 286 286 285 285 284 283 282 283 281 281 280 279 280 280 280 279 279 279 279 279 278 278 279 279 279 279 279 279 279 279 278 278 279 278 279
280 281 279 280 279 278 277 283 289 287 286 286 284 283 284 281 283 283 281 280 281 280 279 279 279 278 278 278 278 278 278 278 278 277 277 277 278 277 277 277 277 277 277 277 277 276 276 276 277
281 282 282 280 279 277 274 278 283 285 280 278 282 283 282 278 278 278 278 278 278 278 278 278 278 277 277 277 277 277 277 277 276 276 276 277 276 276 276 276 276 276 276 276 275 274 275 275 275
Wind_Speed
13 8 4 4 4 2 6 5 2 4 4 6 9 7 11 9 5 4 7 15 14 13 13 17 19 21 20 19 17 16 17 15 14 14 14 13 13 13 13 12 12 12 11 12 12 12 12 12 12
8 4 3 1 3 7 7 3 8 8 8 5 6 3 8 5 5 4 5 14 12 10 13 18 18 20 20 19 18 18 18 17 15 14 14 12 12 12 12 12 12 12 12 12 12 12 12 12 12
4 4 1 2 1 6 6 6 7 7 4 2 4 8 4 4 4 3 7 7 8 12 13 15 21 22 21 21 20 19 18 16 15 14 13 13 12 12 13 13 12 12 12 12 12 12 12 12 12
3 2 3 4 12 7 5 5 4 4 5 5 7 8 6 5 3 5 6 6 11 11 12 15 19 19 18 17 16 16 15 14 13 13 12 11 11 11 11 12 11 11 11 11 12 11 11 12 12
2 1 4 8 11 7 7 4 1 4 5 7 2 6 5 4 5 5 5 8 11 11 9 12 17 17 17 16 16 16 14 13 12 12 12 12 11 10 10 10 10 10 10 10 10 11 10 10 10
3 1 6 8 9 6 6 4 2 7 5 5 7 7 4 4 4 5 7 10 8 10 10 11 13 15 15 16 16 15 14 14 14 14 13 12 11 11 11 12 12 12 12 12 12 11 11 11 11
4 3 5 9 9 5 2 3 4 5 3 7 1 4 4 4 5 6 8 9 10 11 11 10 11 11 11 14 15 14 14 14 13 13 13 13 12 13 13 13 13 14 13 13 13 12 12 11 11
3 4 4 2 5 4 2 2 1 3 5 1 2 4 5 4 3 5 9 10 11 11 11 11 10 11 9 9 12 11 12 13 13 13 13 12 9 11 12 12 13 14 14 14 14 14 14 13 13
1 4 4 4 4 4 1 3 3 3 7 7 4 4 6 5 5 5 4 7 6 8 11 11 11 10 10 9 7 6 8 9 10 10 11 8 7 8 10 9 11 12 13 13 13 13 13 12 10
5 3 3 1 1 2 3 1 2 4 7 6 7 7 6 6 6 8 9 8 10 12 11 11 11 11 10 7 8 7 6 6 7 8 9 7 8 7 8 7 9 10 10 11 11 11 11 9 7
5 4 6 2 2 1 3 3 2 6 3 2 4 6 4 3 6 6 6 8 8 8 9 11 11 10 11 8 6 5 5 5 5 10 10 8 7 7 7 6 6 8 7 6 8 9 6 9 8
8 4 1 3 4 1 2 3 3 1 2 2 5 4 4 5 4 6 7 8 8 9 10 11 12 11 11 7 7 7 6 6 6 8 12 9 6 8 8 7 9 8 7 10 9 7 9 10 10
10 4 5 4 6 6 2 1 2 4 4 5 5 5 5 5 6 7 6 7 7 9 10 11 12 11 10 10 7 7 8 7 8 8 11 9 8 9 9 9 8 8 8 9 9 10 10 11 12
4 8 5 4 4 3 3 4 3 7 4 7 5 5 5 5 4 4 5 6 7 8 10 9 11 11 10 9 10 7 7 8 7 7 9 11 9 9 9 9 9 9 10 10 10 11 11 11 12
5 5 2 4 5 2 4 6 7 5 5 8 7 6 6 5 4 5 5 6 6 6 6 8 9 10 9 9 7 6 6 6 6 7 9 12 11 11 12 10 10 10 11 13 11 12 11 11 12
1 2 3 4 6 2 3 6 5 3 14 14 12 10 8 5 5 5 5 4 5 5 7 8 7 9 9 8 6 5 6 6 6 7 7 11 11 12 11 9 9 11 11 11 10 11 11 12 12
5 1 3 2 2 4 4 10 6 4 11 14 13 11 8 5 4 4 3 3 3 4 5 6 7 9 10 8 6 5 6 5 5 6 7 11 11 13 11 9 10 13 10 10 10 11 12 12 12
1 1 3 6 4 3 10 22 13 9 12 14 12 11 9 8 5 4 3 2 1 3 5 6 6 9 9 7 7 5 6 6 6 6 8 11 9 12 11 10 11 11 10 10 11 13 12 13 13
1 2 5 3 5 8 9 18 18 12 13 13 12 12 11 9 6 5 4 3 2 1 4 6 7 8 7 7 8 6 7 7 7 6 10 10 11 13 12 10 11 11 11 13 13 13 15 12 12
1 4 5 8 1 7 11 27 20 10 11 15 13 13 11 9 9 8 7 5 3 2 4 5 6 7 7 6 6 5 8 7 9 8 11 11 12 12 11 11 11 12 11 13 12 13 11 11 10
3 3 4 7 12 1 13 11 1 3 4 5 8 10 11 13 13 11 9 7 5 4 3 5 6 6 6 8 6 7 8 7 8 9 9 10 13 13 13 13 12 12 11 10 12 12 15 12 11
3 2 5 8 8 5 8 7 4 2 4 8 10 12 14 15 11 10 10 9 7 4 3 4 5 7 7 8 8 11 9 11 10 10 10 11 13 13 13 14 13 13 10 12 11 11 12 13 13
3 4 3 2 2 4 5 3 5 2 2 2 9 14 16 15 14 14 12 9 6 5 4 4 6 7 7 9 9 9 11 10 10 10 14 14 12 13 13 13 14 13 11 13 15 15 14 12 12
5 3 1 2 1 1 2 5 8 2 1 3 3 7 13 15 14 12 10 7 7 5 5 5 7 8 9 10 11 12 14 14 13 13 12 11 11 11 13 13 13 14 13 14 13 15 16 14 14
3 4 3 3 2 3 4 5 13 6 8 7 6 6 6 11 12 11 11 9 8 6 6 6 9 11 12 12 13 14 15 16 16 15 12 16 12 11 13 15 14 12 15 16 15 15 16 15 14
4 2 2 6 5 9 4 9 5 3 2 5 6 8 7 9 10 10 9 7 7 6 8 8 10 11 12 13 14 13 15 11 12 14 13 12 12 13 16 15 16 17 16 16 16 13 13 16 13
1 1 2 2 3 3 4 7 15 3 7 6 8 5 7 7 8 9 7 5 6 7 7 9 11 12 13 14 13 14 14 15 14 17 16 13 16 14 17 18 18 18 17 17 17 13 15 16 16
2 4 0 1 6 9 4 6 9 4 4 1 4 5 5 6 6 6 4 4 5 5 7 9 11 12 14 15 14 13 15 15 15 15 17 18 17 19 19 19 19 19 18 18 18 15 16 16 14
3 2 2 1 1 5 9 6 7 7 4 2 3 3 3 6 7 3 3 5 5 6 8 10 11 14 14 15 15 16 15 16 16 16 17 17 18 19 20 20 20 19 19 18 17 19 20 19 18
2 2 4 3 4 4 3 15 2 1 1 3 7 4 5 3 4 5 5 4 6 8 10 12 13 14 14 15 15 16 17 17 17 17 18 18 19 19 19 21 21 21 20 18 19 19 19 21 20
Wind_Direction
312 309 269 233 189 159 113 90 65 103 111 57 62 44 82 42 18 40 340 5 350 350 32 49 47 57 61 59 56 48 58 60 56 52 44 39 36 31 30 32 26 19 13 17 16 13 11 6 6
318 312 222 120 188 157 100 74 80 60 94 91 78 60 38 71 20 64 10 353 352 9 35 43 45 52 51 52 48 46 46 45 46 46 45 39 35 27 28 25 21 16 11 11 10 9 7 5 3
287 327 356 54 64 96 111 72 86 88 49 104 109 48 39 3 59 31 360 360 24 35 35 37 42 41 44 45 44 41 43 41 37 40 40 36 29 26 21 20 13 12 8 4 6 3 3 2 359
317 141 106 76 98 68 75 84 60 136 111 57 102 85 114 39 33 6 359 10 48 34 36 41 47 47 46 44 44 46 41 39 38 38 35 29 26 21 19 16 7 7 6 0 358 356 358 356 356
24 116 89 93 85 97 72 55 50 147 97 55 211 115 86 61 59 43 39 51 50 47 39 43 44 44 42 38 37 33 32 29 29 29 24 18 12 4 7 1 355 354 354 351 349 351 346 351 348
89 287 126 112 107 102 76 24 121 87 88 89 92 105 90 95 68 54 58 58 60 56 46 39 44 33 37 33 31 24 23 19 18 18 15 11 8 6 360 355 351 347 345 343 343 343 341 342 341
82 56 82 115 121 123 45 331 57 76 102 57 33 110 100 90 77 69 70 71 61 45 42 40 32 22 30 35 25 16 18 17 16 16 12 6 5 5 1 354 350 345 342 338 336 334 333 331 331
77 85 111 64 148 109 28 119 56 30 79 96 340 122 143 77 75 100 66 53 50 43 34 26 24 18 8 22 30 15 17 15 15 14 10 3 358 3 2 355 352 343 341 337 335 331 331 330 328
327 87 118 133 171 135 120 175 72 62 98 66 37 63 54 63 92 85 78 60 44 38 32 21 18 14 7 10 13 4 16 18 15 11 10 353 0 356 348 349 340 341 340 334 330 328 326 322 302
40 94 135 173 169 140 76 113 98 186 134 96 109 94 99 66 59 48 38 24 24 23 22 17 12 11 6 7 5 8 13 14 19 14 3 360 352 353 331 320 324 324 327 323 323 319 314 293 310
37 102 146 121 318 302 82 78 12 160 126 106 168 162 83 60 56 60 52 41 22 19 21 17 11 13 13 13 7 16 17 13 18 20 10 0 353 350 346 334 335 332 333 325 323 317 313 314 307
100 62 74 39 357 111 115 98 101 356 118 246 249 151 156 128 80 47 37 30 19 21 19 18 16 15 17 8 14 13 18 8 14 15 11 360 357 353 347 342 337 332 334 323 321 312 307 299 294
78 108 59 51 65 65 129 138 209 190 189 190 162 152 120 89 67 53 41 36 24 25 19 18 18 16 15 23 15 19 17 19 16 20 17 7 360 354 344 340 334 331 332 324 317 308 304 299 294
102 110 111 57 67 44 171 182 231 182 164 171 173 114 88 90 94 92 47 34 29 26 23 19 27 18 17 23 19 18 13 9 13 16 13 7 2 353 344 336 334 333 335 326 317 313 307 301 295
132 104 142 53 1 55 314 230 229 95 170 171 154 161 156 120 94 67 45 44 29 39 31 25 19 16 16 14 11 12 9 7 5 7 8 6 7 354 343 338 336 338 328 320 317 313 309 305 300
134 182 208 76 5 84 293 285 155 153 177 195 188 188 178 140 103 80 62 59 41 32 25 22 15 13 9 8 3 4 8 2 2 4 360 3 359 353 342 337 335 334 324 323 321 320 316 309 305
40 22 346 263 101 303 236 276 169 182 202 213 207 201 187 154 138 113 84 66 49 36 22 17 11 10 3 358 352 351 359 355 359 356 357 354 352 350 342 332 334 332 324 322 322 319 314 309 306
56 251 251 273 31 302 265 263 258 212 217 227 215 210 201 196 177 163 154 142 90 32 20 13 12 7 359 354 345 347 353 343 350 347 352 342 342 340 334 325 328 326 322 319 320 315 314 309 305
44 304 292 299 33 317 287 287 280 251 228 226 221 211 211 206 186 187 183 196 224 23 6 12 7 9 4 0 354 333 341 327 337 332 336 336 338 336 330 325 323 323 321 318 316 315 314 312 314
272 306 327 294 49 321 307 291 293 271 242 232 221 218 215 204 206 207 210 211 224 323 349 352 1 2 3 349 340 328 326 323 326 323 328 327 330 326 317 319 316 316 312 309 311 311 309 305 316
39 343 344 290 319 139 310 279 286 77 230 229 233 232 222 218 218 215 218 223 226 249 319 341 342 342 342 345 329 326 317 307 310 320 315 321 319 318 317 315 311 309 307 305 305 305 304 306 307
313 60 303 298 333 317 357 295 303 351 276 227 225 222 221 221 224 228 225 223 225 244 283 301 322 335 340 337 328 325 315 313 316 310 309 312 311 310 310 309 308 307 304 299 300 300 301 297 296
332 317 304 341 326 313 20 278 277 330 23 12 232 228 226 223 222 222 224 227 224 233 271 307 318 316 327 329 324 319 315 312 312 309 309 308 307 305 305 305 306 304 303 301 299 301 301 295 293
310 259 150 145 212 274 325 338 283 281 236 262 246 241 229 222 222 227 228 223 234 235 270 309 319 324 328 325 324 318 314 315 312 313 313 311 311 308 304 304 302 301 298 299 302 298 297 292 290
312 298 329 341 348 319 163 267 258 242 230 248 289 299 275 231 228 228 225 227 237 252 289 314 325 324 329 326 320 322 317 316 315 317 314 314 309 308 306 309 303 302 302 299 295 292 290 287 284
12 351 66 306 302 309 147 231 250 198 249 279 279 287 295 245 236 240 238 244 262 281 297 316 326 323 323 324 322 320 319 316 313 313 311 306 305 304 306 304 301 299 297 296 295 291 289 284 283
82 66 34 110 87 279 233 272 276 276 279 248 261 278 284 269 253 256 258 275 309 312 327 325 325 324 327 325 322 320 320 319 315 312 307 304 304 304 302 300 299 298 297 297 297 292 289 289 287
324 105 6 107 313 304 225 282 254 294 271 233 246 254 296 296 281 265 270 332 339 349 324 328 331 327 327 326 325 320 319 317 313 310 309 308 306 306 303 301 299 299 296 296 297 295 292 292 285
149 193 70 301 248 267 301 266 202 225 202 199 273 273 293 330 311 301 13 8 360 333 339 333 334 334 332 330 327 322 319 318 315 312 311 309 309 309 308 304 302 299 296 296 297 295 295 289 287
298 263 208 211 201 236 279 271 90 333 30 241 262 286 331 319 1 7 2 18 352 344 344 343 340 336 333 327 324 321 319 319 316 316 314 312 312 312 310 309 298 299 294 297 297 297 296 292 288